Bismarck, ND

12:39 AM CDT on May 30, 2017 (GMT -0500)
Bismarck Municipal

Weather History for KBIS - April, 2014

Change the Weather History Date:

Thursday, April 24, 2014

  Actual Average Record
Temperature  
Mean Temperature 50 °F 48 °F  
Max Temperature 65 °F 61 °F 91 °F (1962)
Min Temperature 34 °F 34 °F 19 °F (1934)
Degree Days  
Heating Degree Days 15 18  
Month to date heating degree days 589 540  
Since 1 July heating degree days 8605 8059  
Cooling Degree Days 0 0  
Month to date cooling degree days 0 0  
Year to date cooling degree days 0 0  
Moisture  
Dew Point 26 °F    
Average Humidity 47    
Maximum Humidity 76    
Minimum Humidity 17    
Precipitation  
Precipitation 0.00 in 0.05 in 1.58 in (2016)
Month to date precipitation 0.29 0.93  
Year to date precipitation 1.68 2.74  
Snow  
Snow 0.00 in 0.10 in 6.20 in (1909)
Month to date snowfall 3.9 3.8  
Since 1 July snowfall 40.2 50.4  
Snow Depth 0.00 in    
Sea Level Pressure  
Sea Level Pressure 29.75 in    
Wind  
Wind Speed 9 mph (WNW)    
Max Wind Speed 28 mph    
Max Gust Speed 39 mph    
Visibility 10 miles    
Events      
T = Trace of Precipitation, MM = Missing Value Source: NWS Daily Summary

Daily Weather History Graph

Daily Weather History Graph

Search for Another Location

Airport or City:

Trip Planner

Search our weather history database for the weather conditions in past years. The results will help you decide how hot, cold, wet, or windy it might be!

Date:

Astronomy

Apr. 24, 2014 Rise Set
Actual Time 6:39 AM CDT 8:43 PM CDT
Civil Twilight 6:06 AM CDT 9:16 PM CDT
Nautical Twilight 5:26 AM CDT 9:57 PM CDT
Astronomical Twilight 4:41 AM CDT 10:42 PM CDT
Moon 4:10 AM CDT (4/24) 3:43 PM CDT (4/24)
Length of Visible Light 15h 09m
Length of Day
14h 04m
Waning Crescent, 24% of the Moon is Illuminated
Apr 24
Waning Crescent
Apr 29
New
May 6
First Quarter
May 14
Full
May 21
Last Quarter

Hourly Weather History & Observations

Time (CDT) Temp. Windchill Dew Point Humidity Pressure Visibility Wind Dir Wind Speed Gust Speed Precip Events Conditions
12:52 AM 37.9 °F 35.5 °F - N/A% 29.77 in 10.0 mi SSE 3.5 mph - N/A   Clear
1:52 AM 37.9 °F - - N/A% 29.76 in 10.0 mi Calm Calm - N/A   Clear
2:52 AM 39.0 °F - - N/A% 29.76 in 10.0 mi Calm Calm - N/A   Clear
3:52 AM 35.1 °F 30.1 °F - N/A% 29.76 in 10.0 mi West 5.8 mph - N/A   Clear
4:52 AM 37.0 °F 33.3 °F - N/A% 29.74 in 10.0 mi West 4.6 mph - N/A   Clear
5:52 AM 37.9 °F 35.5 °F - N/A% 29.75 in 10.0 mi WSW 3.5 mph - N/A   Clear
6:52 AM 36.0 °F 31.1 °F 28.9 °F 76% 29.76 in 10.0 mi WNW 5.8 mph - N/A   Clear
7:52 AM 39.9 °F 35.1 °F 30.0 °F 68% 29.78 in 10.0 mi West 6.9 mph - N/A   Clear
8:52 AM 44.1 °F 40.8 °F 28.9 °F 55% 29.78 in 10.0 mi West 5.8 mph - N/A   Clear
9:52 AM 51.1 °F - 28.9 °F 43% 29.77 in 10.0 mi West 13.8 mph - N/A   Clear
10:52 AM 55.9 °F - 28.0 °F 34% 29.77 in 10.0 mi WNW 13.8 mph 19.6 mph N/A   Clear
11:52 AM 60.1 °F - 25.0 °F 26% 29.76 in 10.0 mi WNW 11.5 mph 23.0 mph N/A   Clear
12:52 PM 59.0 °F - 21.9 °F 24% 29.74 in 10.0 mi WNW 13.8 mph 26.5 mph N/A   Scattered Clouds
1:52 PM 63.0 °F - 19.9 °F 19% 29.72 in 10.0 mi WNW 16.1 mph 26.5 mph N/A   Scattered Clouds
2:52 PM 61.0 °F - 19.0 °F 20% 29.71 in 10.0 mi WNW 20.7 mph 26.5 mph N/A   Scattered Clouds
3:52 PM 63.0 °F - 18.0 °F 18% 29.71 in 10.0 mi NW 13.8 mph 24.2 mph N/A   Mostly Cloudy
4:52 PM 64.0 °F - 19.9 °F 18% 29.69 in 10.0 mi WNW 19.6 mph 27.6 mph N/A   Clear
5:52 PM 61.0 °F - 25.0 °F 25% 29.71 in 10.0 mi NW 17.3 mph 25.3 mph N/A   Scattered Clouds
6:52 PM 61.0 °F - 25.0 °F 25% 29.72 in 10.0 mi NNW 13.8 mph 25.3 mph N/A   Clear
7:52 PM 57.9 °F - 26.1 °F 30% 29.73 in 10.0 mi NNW 15.0 mph 21.9 mph N/A   Clear
8:52 PM 52.0 °F - 30.9 °F 45% 29.75 in 10.0 mi NE 9.2 mph - N/A   Clear
9:52 PM 42.1 °F - 30.0 °F 62% 29.78 in 10.0 mi Calm Calm - N/A   Clear
10:52 PM 36.0 °F 33.3 °F 28.9 °F 76% 29.79 in 10.0 mi South 3.5 mph - N/A   Clear
11:52 PM 37.0 °F - 30.0 °F 76% 29.77 in 10.0 mi Calm Calm - N/A   Clear